Theta_e
316 315 317 318 320 320 322 324 321 325 324 325 325 330 334 333 336 336 334 335 334 336 336 336 336 331 329 330 330 332 331 332 333 332 332 332 332 331 330 331 332 334 333 331 331 331 329 327 325
315 316 317 314 319 321 321 317 324 323 331 327 327 330 333 339 333 334 335 335 336 336 335 335 335 332 330 329 329 333 334 332 332 330 330 329 329 330 332 330 329 333 333 331 330 330 328 324 321
315 316 317 317 317 320 321 317 322 324 327 321 330 329 333 337 332 334 336 332 332 334 332 331 334 333 329 331 330 333 335 333 332 330 329 329 330 329 329 330 328 328 329 329 328 326 324 323 322
316 314 311 317 318 317 316 318 320 328 321 324 329 336 331 331 333 335 335 331 333 335 333 331 333 334 328 329 329 335 335 333 332 330 330 328 328 329 328 328 327 327 329 328 327 324 324 326 322
313 312 316 315 316 314 311 317 322 321 320 325 326 334 335 334 334 337 334 332 334 334 332 333 334 334 327 329 328 333 334 332 329 330 329 327 328 325 327 327 327 327 328 327 326 323 321 321 320
315 311 316 316 315 315 317 316 317 317 320 327 331 333 334 333 334 336 334 332 331 331 331 332 335 333 327 328 329 330 332 331 327 325 328 327 328 328 323 323 326 327 326 325 323 319 319 319 319
315 316 316 314 315 319 320 313 316 319 324 327 328 335 332 334 334 335 334 331 329 330 333 334 336 333 327 328 330 327 325 327 325 324 325 326 327 328 327 323 323 325 324 320 318 317 317 319 320
312 314 315 314 315 319 316 314 313 320 322 323 326 331 336 333 333 335 333 331 330 331 335 336 336 333 326 326 329 327 319 319 324 327 323 324 326 327 327 324 323 320 319 318 318 318 317 318 320
310 316 317 317 315 318 312 314 311 315 326 323 324 326 327 332 333 333 331 331 332 332 335 335 335 333 326 322 324 324 321 318 321 326 326 324 324 324 324 323 322 320 319 318 318 320 321 320 320
313 316 318 315 311 314 313 314 313 321 325 325 325 327 330 332 333 331 328 327 328 332 331 333 334 332 325 321 322 324 321 317 318 321 325 325 326 325 323 322 321 320 319 318 318 319 319 319 318
312 317 315 315 313 312 313 312 313 320 325 323 326 328 330 332 332 329 327 327 327 331 330 331 333 332 326 322 320 321 320 317 316 319 319 320 319 318 317 319 317 318 317 317 317 318 318 317 317
315 311 311 311 310 312 312 310 315 317 318 315 322 328 330 331 330 328 327 326 325 330 332 331 332 332 328 324 320 318 317 317 316 319 321 320 319 317 317 317 320 321 322 320 319 319 319 319 319
314 314 312 310 310 311 310 312 314 315 313 318 326 329 330 330 330 329 328 325 324 326 328 333 331 332 328 326 322 319 317 317 319 320 321 321 321 321 320 322 321 321 321 321 321 320 320 320 320
314 317 314 313 310 311 312 311 312 313 321 325 329 330 330 331 330 329 328 325 324 324 326 327 331 332 328 326 324 322 319 320 322 323 323 322 321 321 323 323 323 323 322 322 322 321 321 321 321
318 321 321 321 311 312 310 313 312 311 323 327 328 330 329 330 329 330 329 327 323 323 322 323 326 328 326 325 325 324 323 321 321 323 324 323 323 322 322 323 323 323 323 323 323 323 322 322 321
323 321 326 323 313 311 311 316 313 313 324 327 327 328 331 329 330 330 330 330 327 323 322 321 320 321 325 325 324 324 324 323 326 327 327 327 326 324 323 323 323 323 323 323 323 321 321 322 321
321 328 323 323 315 312 311 314 311 313 322 324 326 327 329 329 327 330 331 331 331 328 325 322 322 321 321 322 323 323 323 324 327 328 328 328 327 325 325 324 324 323 323 323 322 321 322 323 323
327 326 322 326 319 309 311 310 309 308 321 321 324 325 327 328 328 328 331 332 332 332 331 324 322 322 324 327 327 326 326 328 329 327 326 326 326 325 324 323 323 323 324 323 322 323 324 322 322
324 326 324 315 312 318 313 311 312 308 315 320 321 324 326 327 328 328 330 331 332 332 332 330 327 325 327 329 329 328 328 329 329 327 326 327 327 326 325 324 323 323 324 326 326 325 325 322 321
324 327 328 320 312 313 318 320 311 306 306 312 320 322 323 323 322 325 327 329 330 332 333 332 331 330 329 329 330 329 329 329 327 327 327 329 328 327 326 326 326 327 327 327 327 326 325 322 320
323 327 325 323 312 309 308 312 314 307 304 304 309 317 319 322 323 322 323 326 328 329 331 333 333 332 331 331 330 329 329 329 328 328 329 330 329 328 328 328 326 326 326 326 325 325 323 322 319
324 317 315 316 319 326 310 315 317 312 308 304 306 304 311 316 317 319 319 322 325 328 330 331 333 333 332 331 330 330 330 329 329 328 326 326 328 329 328 326 327 326 327 327 325 323 322 320 316
323 316 315 315 316 318 312 314 316 309 309 308 306 304 305 307 311 313 315 319 324 326 328 330 330 331 332 332 331 331 330 330 330 329 327 325 327 327 326 326 327 327 325 325 322 319 318 316 314
315 316 316 315 318 321 319 317 318 313 310 309 308 307 306 305 303 305 309 313 317 321 325 327 328 329 330 331 331 331 330 331 331 329 327 325 325 326 327 327 326 325 324 320 318 317 316 311 306
317 321 322 321 320 323 309 315 321 315 306 308 309 307 307 305 303 301 300 302 306 313 319 323 325 326 328 329 330 330 331 331 331 332 329 324 325 325 326 325 324 323 319 317 316 314 309 301 297
318 320 322 325 320 317 306 318 317 312 316 314 304 303 304 303 301 302 302 302 304 306 311 318 322 324 326 327 328 330 330 331 331 332 330 324 324 324 324 323 321 318 316 315 310 303 297 294 292
316 321 311 313 299 308 308 308 307 304 303 302 301 302 303 302 301 302 302 302 304 305 308 313 318 322 324 325 327 328 328 330 330 330 329 325 324 324 322 321 317 313 312 305 299 296 293 292 290
315 313 319 316 322 316 311 307 315 308 306 304 303 304 304 302 301 301 302 303 305 306 308 312 316 319 323 325 326 327 326 328 330 329 328 325 324 322 320 315 312 311 302 297 294 292 291 290 289
317 318 316 315 310 314 310 311 302 310 308 305 305 304 304 304 302 302 304 306 307 308 309 310 311 312 313 319 325 325 326 326 328 328 327 325 323 320 315 311 312 304 296 294 292 291 290 289 289
313 317 314 317 315 306 308 308 304 300 303 302 302 302 303 303 302 302 304 306 308 309 310 310 310 310 309 309 314 322 325 326 326 326 325 323 321 315 312 309 305 296 293 292 290 290 289 289 288
Wind_Speed
9 10 6 4 3 3 0 3 1 3 2 1 3 4 5 3 2 2 6 9 17 20 18 17 15 15 16 16 16 18 20 19 18 18 17 19 20 21 22 20 19 21 20 20 19 19 18 18 19
9 7 3 2 4 2 3 2 4 4 4 6 4 2 2 2 1 7 10 15 22 20 18 17 15 15 16 17 18 18 18 19 19 18 19 19 20 20 18 18 16 19 20 19 18 17 17 16 18
7 4 3 3 2 3 3 4 4 3 6 2 3 3 2 4 3 14 10 22 20 19 17 17 16 15 16 18 17 16 19 19 19 18 19 19 19 18 17 18 16 15 14 16 17 15 14 15 16
3 3 3 3 3 3 3 3 4 7 1 2 4 5 1 2 12 8 22 22 20 19 18 18 18 16 16 17 17 18 20 16 18 18 19 18 18 17 17 16 14 14 15 15 15 15 15 14 15
4 3 3 2 3 2 3 2 6 5 4 3 2 4 2 4 5 18 25 22 21 19 18 18 18 16 16 17 17 17 17 16 18 18 19 19 16 16 15 15 13 13 14 14 14 14 15 14 14
3 2 3 2 3 3 2 5 6 3 3 3 4 4 3 5 14 22 23 22 19 19 18 19 18 16 16 17 16 17 16 15 15 18 19 19 17 12 14 13 13 13 14 13 13 12 13 13 13
5 3 3 4 2 2 4 6 5 5 5 3 6 4 2 6 14 23 22 20 19 18 19 21 20 18 17 19 17 14 15 15 16 17 19 20 16 14 12 12 13 13 12 11 10 10 11 11 12
4 4 3 3 3 3 6 5 3 4 4 3 3 4 5 9 18 22 20 19 18 19 18 21 21 19 18 18 16 15 15 15 16 16 17 16 15 13 11 11 11 11 10 9 9 9 10 10 10
2 4 2 4 5 3 4 4 1 3 5 0 1 4 2 21 23 21 17 16 18 18 18 21 20 18 16 17 16 15 15 15 16 15 14 13 12 11 10 9 8 8 8 7 8 8 8 8 9
3 3 6 3 3 3 6 4 9 5 4 2 2 3 15 25 23 20 17 18 19 19 20 20 19 17 16 16 17 16 15 15 15 14 13 11 10 9 8 7 6 6 6 6 6 7 7 7 7
4 4 1 4 2 1 4 4 5 9 3 7 9 10 19 22 20 17 17 19 21 22 21 20 19 17 15 15 16 15 14 14 14 13 11 10 9 8 7 6 6 7 6 6 5 6 7 7 8
6 5 2 3 5 1 2 5 6 6 7 1 8 20 21 20 21 20 16 21 26 27 27 24 22 19 16 14 14 13 13 13 12 11 10 8 8 7 6 6 6 6 6 5 5 6 6 7 7
4 5 4 1 4 3 3 4 4 7 1 4 14 17 19 21 22 18 24 24 24 28 29 27 25 22 19 16 14 14 13 12 12 11 8 7 6 6 5 5 4 4 4 4 4 4 5 6 6
7 6 3 5 6 2 2 1 1 2 5 7 14 15 15 21 24 17 23 25 25 27 29 29 27 24 21 20 17 15 13 12 11 9 7 7 5 5 4 3 2 1 1 2 3 4 6 7 8
2 6 5 2 4 5 2 3 7 1 4 8 9 10 11 15 19 22 23 26 27 27 27 28 27 25 23 21 19 17 15 14 13 10 8 7 5 4 3 2 1 1 1 2 3 5 6 7 9
5 4 7 8 4 3 1 8 6 6 8 8 9 9 13 13 22 22 26 28 27 27 28 27 25 24 23 22 21 19 17 15 13 11 8 7 6 5 4 3 3 2 2 2 3 7 9 10 11
7 5 3 3 4 1 4 6 5 5 8 8 8 10 12 11 12 23 28 30 28 29 28 28 28 28 26 23 21 19 17 16 13 11 8 7 6 5 5 5 3 3 3 3 4 7 9 12 13
5 6 4 7 1 3 5 9 10 4 7 8 8 10 12 13 18 26 31 31 30 29 29 29 30 29 26 24 21 19 18 16 15 12 12 11 10 9 6 4 4 4 4 5 6 7 9 11 13
9 3 9 4 4 2 6 10 13 5 5 7 8 10 11 14 17 23 30 31 30 29 30 31 30 30 28 27 24 21 21 19 19 17 16 16 14 12 11 8 8 7 8 7 7 8 9 10 13
11 8 4 3 3 4 12 22 14 6 7 9 11 9 12 6 7 18 27 33 34 33 34 34 33 32 31 31 30 26 25 22 18 17 18 17 17 16 14 12 11 10 9 9 8 7 6 5 8
5 12 8 3 3 3 3 15 17 7 5 5 7 7 7 14 14 12 20 30 35 36 37 38 37 36 34 33 31 27 21 20 21 20 19 18 17 17 16 14 12 11 11 10 8 8 6 2 0
7 4 6 7 4 4 4 6 11 9 13 8 13 10 13 14 8 11 19 24 33 38 40 40 40 39 37 36 35 33 27 22 26 23 18 20 20 17 15 14 13 13 11 9 8 7 6 5 2
4 12 6 5 6 2 5 4 7 7 10 11 13 14 15 16 15 15 21 30 37 39 42 42 40 39 38 39 38 38 31 32 26 24 23 18 17 16 15 15 14 12 10 9 7 6 6 4 3
15 13 11 6 2 5 8 10 7 10 14 8 9 16 17 15 15 16 22 28 32 34 38 42 42 42 40 39 39 40 36 37 32 24 21 19 18 17 16 14 13 12 11 9 7 8 7 4 6
4 13 3 2 3 6 3 7 20 9 7 9 12 14 17 16 13 13 12 23 32 36 38 40 41 39 40 40 39 40 39 39 36 33 28 25 22 20 18 16 15 14 12 8 9 8 8 8 8
9 1 5 7 5 2 1 10 6 15 22 15 11 8 5 9 10 14 19 26 31 37 40 42 41 36 39 39 38 39 39 38 37 34 33 31 27 24 21 18 16 14 10 11 11 12 11 10 9
4 4 1 4 2 2 6 8 9 11 10 7 11 7 12 10 11 16 19 26 31 35 41 42 40 38 37 35 33 33 35 36 37 33 31 31 27 24 23 20 17 14 13 14 15 14 12 10 9
3 6 2 1 5 4 5 5 11 3 7 10 10 14 12 8 8 9 8 16 21 29 35 34 34 37 37 29 30 32 30 34 35 33 33 32 29 28 25 22 18 15 17 18 16 14 12 10 9
5 4 2 2 3 4 1 6 7 13 14 9 13 9 8 8 7 5 5 13 21 23 26 29 29 30 31 32 29 30 31 31 32 32 33 33 31 29 27 24 20 21 21 18 16 14 12 9 8
5 8 8 4 6 2 2 9 3 7 6 3 7 8 5 5 6 7 8 15 19 24 24 25 24 24 26 28 29 30 32 30 32 34 35 35 34 30 27 24 24 24 22 19 15 14 12 9 7
Wind_Direction
335 335 343 32 59 62 196 246 78 149 146 9 79 139 162 78 169 172 160 151 154 142 138 136 132 122 119 114 112 107 102 102 102 102 99 94 95 94 94 96 99 89 85 82 81 83 79 74 67
335 343 36 78 87 79 270 261 199 186 134 120 78 54 73 104 89 122 130 156 154 146 142 141 138 127 118 114 118 116 112 102 105 104 101 99 98 98 99 108 102 91 86 85 83 82 76 72 68
327 0 74 87 102 175 203 212 172 132 138 89 93 44 105 126 116 143 148 152 158 151 148 147 144 132 123 123 121 112 123 110 107 108 105 100 103 101 101 98 96 100 92 85 80 80 78 75 71
340 23 50 87 207 244 199 175 171 133 233 100 123 81 53 254 151 161 153 155 153 150 149 149 148 138 132 126 123 110 123 110 108 109 105 105 106 100 103 103 104 100 91 86 83 80 78 78 72
41 47 73 88 257 257 256 197 145 133 125 115 162 161 66 123 156 152 155 158 156 152 152 154 150 144 139 134 132 130 123 117 111 116 113 111 103 105 116 116 112 93 93 87 82 78 76 74 68
47 100 69 193 248 267 261 171 137 101 126 136 97 120 152 161 149 160 159 161 163 158 154 155 156 149 144 137 133 143 136 128 114 120 122 119 112 113 101 108 97 98 92 91 86 79 75 70 67
115 92 197 192 226 293 179 162 147 135 138 214 155 110 136 170 166 165 163 161 158 157 157 159 161 154 149 145 144 144 142 136 128 121 128 127 120 109 104 103 99 97 99 94 86 75 69 68 62
110 92 144 230 199 231 161 158 134 136 195 133 149 177 169 180 168 165 161 157 157 160 162 163 165 161 155 154 151 147 140 139 136 129 130 138 127 126 117 104 100 99 98 93 85 72 62 59 58
159 78 188 220 169 206 146 145 122 125 115 144 123 163 180 161 163 158 151 148 157 163 165 167 168 162 158 155 155 147 144 143 144 138 135 135 134 127 118 111 102 95 93 90 83 72 56 53 47
103 138 204 213 209 206 180 168 158 137 125 227 158 39 148 157 160 157 165 162 165 166 169 173 171 168 165 160 159 157 152 146 143 141 140 138 133 123 119 110 102 100 89 83 81 64 53 52 47
158 168 271 359 265 271 178 174 175 123 207 203 193 161 156 161 168 172 182 181 171 167 169 177 179 176 172 166 163 162 156 150 147 145 140 139 131 122 112 107 93 91 82 74 74 54 45 40 35
130 80 57 331 341 7 202 135 184 188 202 203 178 161 161 167 179 181 194 191 176 175 173 178 184 180 176 175 171 169 165 160 154 150 145 137 133 126 116 104 95 82 67 58 49 39 34 27 16
138 163 122 17 4 261 137 230 210 222 280 97 134 158 171 177 183 191 196 198 187 181 178 180 184 187 182 182 182 180 175 171 165 163 159 153 141 126 122 112 100 82 64 52 40 32 20 8 1
168 149 147 56 352 292 187 267 266 210 141 128 151 175 177 182 183 188 193 200 197 189 186 184 188 190 190 189 189 188 186 184 182 180 177 169 157 155 142 131 122 105 59 36 24 13 5 356 346
186 131 58 270 30 332 272 269 231 122 146 156 168 175 177 182 178 192 198 200 200 199 195 193 192 194 195 196 197 196 195 195 197 195 193 192 188 181 185 192 191 197 322 356 2 359 347 341 332
104 76 178 231 35 29 111 263 267 167 156 188 178 175 182 191 191 198 203 208 205 203 202 200 199 199 204 204 202 204 205 203 201 201 203 205 210 212 217 220 227 249 289 313 337 334 320 321 322
18 158 123 313 171 218 175 277 282 178 186 198 197 186 189 193 195 202 210 210 213 211 207 207 206 203 203 207 210 212 211 211 210 211 216 217 224 232 245 250 260 259 263 274 310 314 319 324 330
148 175 183 193 195 167 246 267 280 238 211 219 202 202 196 196 206 204 210 214 215 217 215 213 212 210 207 208 211 213 216 217 212 222 224 222 217 217 222 246 240 253 268 287 292 303 312 321 328
162 169 195 165 140 117 264 269 269 238 235 238 219 219 214 208 208 207 212 216 217 220 219 219 215 215 211 209 209 213 215 216 226 226 229 227 223 223 222 225 248 262 272 282 290 298 305 319 332
161 179 195 352 77 194 256 263 271 223 226 216 217 215 222 203 207 201 209 214 217 219 224 221 220 220 217 217 215 213 214 218 228 233 234 231 226 225 224 231 245 257 264 274 274 283 288 320 331
173 193 178 180 102 243 321 269 256 240 239 218 218 211 198 216 213 209 204 211 216 216 221 224 223 223 222 221 219 213 216 223 217 224 231 232 227 226 234 241 245 250 257 255 253 262 270 217 185
188 103 108 109 107 221 180 282 235 230 240 211 223 204 218 216 219 203 209 214 215 218 222 227 226 226 226 225 221 213 209 208 220 221 229 241 236 234 237 236 235 246 242 220 242 256 253 252 190
160 127 97 101 123 339 207 248 270 170 246 237 224 216 219 215 213 212 210 215 222 223 222 225 227 228 228 226 224 221 215 223 230 222 226 229 223 230 230 230 236 230 222 223 222 233 258 262 212
129 97 76 69 115 246 196 218 232 216 224 245 241 219 217 214 208 213 218 224 227 226 225 224 225 227 228 228 226 224 218 223 222 219 209 208 216 221 223 223 219 213 205 202 229 243 226 194 149
149 147 113 162 183 252 257 196 243 250 209 220 228 223 223 212 202 204 201 211 223 222 221 223 221 220 224 226 226 225 225 228 226 223 206 205 209 212 214 213 205 199 199 208 222 201 176 150 134
147 206 152 185 194 209 76 232 252 228 233 231 233 243 239 204 207 205 212 212 218 219 218 215 216 214 221 223 224 227 227 226 227 226 215 207 208 205 200 199 197 194 192 199 183 169 156 145 131
168 172 92 86 66 96 206 283 278 235 248 238 240 228 231 220 207 214 216 209 213 217 216 213 213 215 216 215 215 217 221 221 222 223 212 206 205 195 190 190 189 182 188 179 168 164 157 148 132
143 152 113 178 192 245 263 265 246 333 261 240 239 233 239 241 233 221 212 214 216 215 214 210 212 214 216 209 211 214 215 218 223 218 208 201 196 189 186 182 178 186 179 171 171 165 152 147 131
139 163 104 102 201 207 289 259 225 211 213 220 232 241 248 254 249 244 202 207 212 214 206 205 207 208 210 212 211 214 216 217 221 214 203 195 191 187 182 178 178 183 176 174 171 161 156 153 136
139 179 177 171 197 224 167 262 277 260 266 269 274 287 274 258 222 201 199 197 194 193 196 202 205 209 214 214 210 210 212 213 211 205 197 191 185 184 182 176 180 177 177 173 173 168 161 158 150